Powrót do katalogu

FLOCK 4G 4

AktywnyNaukaSSO
NORAD 62659·PAYLOAD·🇺🇸 United States

Wystrzelony Jan 14, 2025 z Vandenberg Space Force Base

Loading…

Następne Przeloty (najbliższe 24 godziny)

TLE

ŚwieżeSource: Space-Track

Epoka: Sep 14, 2026, 04:19 UTC

1 62659U 25009BC  26257.18051479  .00031386  00000-0  89180-3 0  9991
2 62659  97.3886 338.4772 0002479  12.0693 348.0609 15.36114192150142

Śledź FLOCK 4G 4 w czasie rzeczywistym z AllMySat

Download on the App Store